Погода в Новобирюсинском

Россия / Иркутская область     56°57′37″N   97°42′10″E
темп.,
°C
ветер,
м/с
пор.,
м/с
влажн.,
%
обл.,
%
осадки,
мм/ч
давл.,
гПа
погр.,
м
22 января, сб
сб2223:00−17всв1110082 0.1 10359
02:00−19св1110083 0.1 10369
05:00−21св1110095 0.0 10369
08:00−21св1110084 0.1 103612
11:00−16всв119787 0.1 103649
14:00−12в129199 0.1 1035212
17:00−14ссв1198100 0.0 10359
20:00−17св11100100 0.0 103610
23 января, вс
вс2323:00−18ссв1199100 0.0 103710
02:00−19ссв1199100 0.0 103710
05:00−18ссв1199100 0.0 103712
08:00−18ссз1199100 0.1 103713
11:00−16ссз0096100 0.0 103751
14:00−13зсз1191100 0.1 1036207
17:00−13з1197100 0.0 103611
20:00−15зсз0099100 0.1 103611
24 января, пн
пн2423:00−15з1198100 0.0 103614
02:00−15юз0098100 0.1 103613
05:00−16зюз0098100 0.0 103512
08:00−19зюз1110094 0.1 10369
11:00−17зюз129780 0.1 103772
14:00−14зюз2392100 0.1 1036271
17:00−15зюз119897 0.0 103610
20:00−22зюз11100100 0.1 103711
25 января, вт
вт2523:00−18юз2598100 0.1 1037140
02:00−16зюз2797100 0.4 1036282
05:00−16зюз2697100 0.3 1036247
08:00−17юз1399100 0.4 103781
11:00−16юз159784 0.1 1037172
14:00−13зюз2488100 0.2 1036516
17:00−14зюз119799 0.1 10369
20:00−19юз1110089 0.1 10389
26 января, ср
ср2623:00−20юз1110098 0.1 10399
02:00−22ююз11100100 0.1 10399
05:00−23ю1110099 0.1 10399
08:00−24ююз11100100 0.1 104010
11:00−22юз12100100 0.0 104049
14:00−16зюз2492100 0.1 1039330
17:00−15зюз2495100 0.0 1038169
20:00−17юз1199100 0.0 103944